Location: Newark
(48.1500°N, 2.9667°W)
Time: 20:22:08
(UTC+00:00)

A-11 Canister half - Pass Details

Date: 30 January 2020
Orbit: 1517 x 1683 km, 47.2° (Epoch: 26 February)

Event Time Altitude Azimuth Distance (km) Brightness Sun altitude
Rises 20:24:18 0° 189° (S) 4,798 11.6 -32.8°
Reaches altitude 10° 20:28:22 10° 175° (S) 3,787 10.9 -33.5°
Enters shadow 20:28:31 10° 175° (S) 3,757 10.9 -33.5°
